Regional Weather Roundup
Issued by NWS

Home | Current Version | Previous Version | Graphics & Text | Print | Product List | Glossary On
Versions: 1 2 3 4 5 6 7 8 9 10 11 12 13 14 15 16 17 18 19 20 21 22 23 24 25 26 27 28 29 30 31 32 33 34 35 36 37 38 39 40 41 42 43 44 45 46 47 48 49 50
000
ASUS43 KFSD 132302
RWRSD

WEATHER ROUNDUP FOR SOUTH DAKOTA
NATIONAL WEATHER SERVICE SIOUX FALLS SD
500 PM CST WED DEC 13 2017

NOTE: "FAIR" INDICATES FEW OR NO CLOUDS BELOW 12,000 FEET WITH NO
SIGNIFICANT WEATHER AND/OR OBSTRUCTIONS TO VISIBILITY.


SDZ001>005-009-010-012>017-140000-
NORTHWEST AND NORTH CENTRAL SOUTH DAKOTA

CITY           SKY/WX    TMP DP  RH WIND       PRES   REMARKS
BUFFALO          N/A     38  24  57 NW15      29.99R
FAITH            N/A     39  23  52 NW22G28   29.98R
MOBRIDGE       CLOUDY    37  27  67 N15       29.94R
$$

SDZ012>016-024>037-041>051-057-063-072>074-140000-
SOUTHWEST AND SOUTH CENTRAL SOUTH DAKOTA

CITY           SKY/WX    TMP DP  RH WIND       PRES   REMARKS
RAPID CTY ARPT CLOUDY    41  23  48 N25G32    30.03S
PIERRE         CLOUDY    39  27  62 N15       29.97R
CUSTER         CLOUDY    34  16  47 NW10      30.00R WCI  26
ELLSWORTH AFB  CLOUDY    41  24  50 N22G31    30.03R
PHILIP         CLOUDY    43  22  43 NW14      30.00R
PINE RIDGE     PTCLDY    43  24  47 N15       30.02R
SPEARFISH      FAIR      37  25  60 NW13G21   30.07R
WINNER         FAIR      45  24  43 NW21G30   29.93S
$$

SDZ004>011-016>023-039-040-140000-
NORTHEAST SOUTH DAKOTA

CITY           SKY/WX    TMP DP  RH WIND       PRES   REMARKS
ABERDEEN       CLOUDY    35  26  69 N20G28    29.92R WCI  24
WATERTOWN      FLURRIES  30  29  96 NW15      29.85R WCI  19
BROOKINGS      MIX PCPN  31  29  92 N16       29.85R WCI  20
SISSETON         N/A     29  26  89 N22       29.87R WCI  15
$$

SDZ017-020-022-023-036>040-048>070-140000-
SOUTHEAST SOUTH DAKOTA

CITY           SKY/WX    TMP DP  RH WIND       PRES   REMARKS
SIOUX FALLS    CLOUDY    36  30  79 NW17      29.87R
HURON          CLOUDY    37  27  67 NW20G25   29.92R
CHAMBERLAIN    MOCLDY    40  29  65 N16       29.94S
MITCHELL       CLOUDY    39  25  57 NW30G36   29.93R
YANKTON        CLOUDY    39  27  62 NW18G26   29.91R
$$

ABBREVIATIONS USED IN REMARKS
   TC - TEMPERATURE IN CELSIUS
  WCI - WIND CHILL INDEX
   HX - HEAT INDEX
  VSB - VISIBILITY





USA.gov is the U.S. government's official web portal to all federal, state and local government web resources and services.